Time,TemperatureF,DewpointF,PressureIn,WindDirection,WindDirectionDegrees,WindSpeedMPH,WindSpeedGustMPH,Humidity,HourlyPrecipIn,Conditions,Clouds,dailyrainin,SoftwareType,DateUTC
2013-04-23 00:04:00,37.6,32.6,30.07,SSE,149,1.0,3.0,82,0.00,,,0.00,Wunderground v.1.15,2013-04-23 05:04:00,
2013-04-23 00:10:00,37.6,32.6,30.07,SE,126,2.0,2.0,82,0.00,,,0.00,Wunderground v.1.15,2013-04-23 05:10:00,
2013-04-23 00:16:00,37.8,32.8,30.06,ESE,105,2.0,2.0,82,0.00,,,0.00,Wunderground v.1.15,2013-04-23 05:16:00,
2013-04-23 00:22:00,38.2,33.2,30.06,South,170,2.0,2.0,82,0.00,,,0.00,Wunderground v.1.15,2013-04-23 05:22:00,
2013-04-23 00:28:00,38.9,33.6,30.06,ENE,72,2.0,2.0,81,0.00,,,0.00,Wunderground v.1.15,2013-04-23 05:28:00,
2013-04-23 00:34:00,39.9,33.9,30.06,SSE,155,2.0,3.0,79,0.00,,,0.00,Wunderground v.1.15,2013-04-23 05:34:00,
2013-04-23 00:40:00,40.7,33.7,30.06,SE,128,2.0,2.0,76,0.00,,,0.00,Wunderground v.1.15,2013-04-23 05:40:00,
2013-04-23 00:46:00,41.2,33.5,30.06,SSE,149,2.0,3.0,74,0.00,,,0.00,Wunderground v.1.15,2013-04-23 05:46:00,
2013-04-23 00:52:00,41.6,33.2,30.06,SSE,152,2.0,3.0,72,0.00,,,0.00,Wunderground v.1.15,2013-04-23 05:52:00,
2013-04-23 00:58:00,42.2,33.5,30.06,SE,139,2.0,3.0,71,0.00,,,0.00,Wunderground v.1.15,2013-04-23 05:58:00,
2013-04-23 01:04:00,42.7,33.2,30.05,SSE,150,2.0,5.0,69,0.00,,,0.00,Wunderground v.1.15,2013-04-23 06:04:00,
2013-04-23 01:10:00,43.1,33.3,30.05,SE,138,2.0,2.0,68,0.00,,,0.00,Wunderground v.1.15,2013-04-23 06:10:00,
2013-04-23 01:16:00,43.2,33.0,30.05,SSE,149,2.0,2.0,67,0.00,,,0.00,Wunderground v.1.15,2013-04-23 06:16:00,
2013-04-23 01:22:00,42.7,32.9,30.04,SE,142,2.0,2.0,68,0.00,,,0.00,Wunderground v.1.15,2013-04-23 06:22:00,
2013-04-23 01:28:00,42.7,32.9,30.04,SE,142,2.0,3.0,68,0.00,,,0.00,Wunderground v.1.15,2013-04-23 06:28:00,
2013-04-23 01:34:00,42.9,33.1,30.04,SE,139,2.0,3.0,68,0.00,,,0.00,Wunderground v.1.15,2013-04-23 06:34:00,
2013-04-23 01:40:00,43.1,32.9,30.04,SE,125,2.0,2.0,67,0.00,,,0.00,Wunderground v.1.15,2013-04-23 06:40:00,
2013-04-23 01:46:00,43.4,32.8,30.03,SSE,155,2.0,3.0,66,0.00,,,0.00,Wunderground v.1.15,2013-04-23 06:46:00,
2013-04-23 01:52:00,43.5,32.9,30.03,SSW,207,2.0,3.0,66,0.00,,,0.00,Wunderground v.1.15,2013-04-23 06:52:00,
2013-04-23 01:58:00,43.6,33.0,30.02,SE,129,3.0,4.0,66,0.00,,,0.00,Wunderground v.1.15,2013-04-23 06:58:00,
2013-04-23 02:04:00,43.6,33.0,30.02,SE,141,3.0,4.0,66,0.00,,,0.00,Wunderground v.1.15,2013-04-23 07:04:00,
2013-04-23 02:10:00,43.7,32.7,30.02,SE,136,3.0,3.0,65,0.00,,,0.00,Wunderground v.1.15,2013-04-23 07:10:00,
2013-04-23 02:16:00,44.0,33.0,30.02,SE,142,3.0,4.0,65,0.00,,,0.00,Wunderground v.1.15,2013-04-23 07:16:00,
2013-04-23 02:22:00,44.2,32.8,30.01,SSE,159,3.0,4.0,64,0.00,,,0.00,Wunderground v.1.15,2013-04-23 07:22:00,
2013-04-23 02:28:00,44.1,32.7,30.01,East,82,3.0,4.0,64,0.00,,,0.00,Wunderground v.1.15,2013-04-23 07:28:00,
2013-04-23 02:34:00,43.8,32.8,30.01,SSE,158,2.0,3.0,65,0.00,,,0.00,Wunderground v.1.15,2013-04-23 07:34:00,
2013-04-23 02:40:00,43.9,32.5,30.01,SSE,155,3.0,3.0,64,0.00,,,0.00,Wunderground v.1.15,2013-04-23 07:40:00,
2013-04-23 02:46:00,44.0,32.6,30.00,SSE,148,3.0,3.0,64,0.00,,,0.00,Wunderground v.1.15,2013-04-23 07:46:00,
2013-04-23 02:52:00,44.2,32.4,30.00,SE,139,3.0,3.0,63,0.00,,,0.00,Wunderground v.1.15,2013-04-23 07:52:00,
2013-04-23 02:58:00,44.3,32.5,30.00,SSE,149,3.0,5.0,63,0.00,,,0.00,Wunderground v.1.15,2013-04-23 07:58:00,
2013-04-23 03:04:00,44.1,32.3,30.00,SE,129,3.0,4.0,63,0.00,,,0.00,Wunderground v.1.15,2013-04-23 08:04:00,
2013-04-23 03:10:00,44.0,32.2,29.99,SSE,148,3.0,4.0,63,0.00,,,0.00,Wunderground v.1.15,2013-04-23 08:10:00,
2013-04-23 03:16:00,43.9,32.1,29.99,SE,131,3.0,4.0,63,0.00,,,0.00,Wunderground v.1.15,2013-04-23 08:16:00,
2013-04-23 03:22:00,44.0,32.2,29.99,SSE,166,3.0,4.0,63,0.00,,,0.00,Wunderground v.1.15,2013-04-23 08:22:00,
2013-04-23 03:28:00,44.0,32.2,29.98,SE,145,3.0,4.0,63,0.00,,,0.00,Wunderground v.1.15,2013-04-23 08:28:00,
2013-04-23 03:34:00,43.9,32.1,29.98,ESE,117,3.0,3.0,63,0.00,,,0.00,Wunderground v.1.15,2013-04-23 08:34:00,
2013-04-23 03:40:00,43.7,32.3,29.98,SE,129,3.0,3.0,64,0.00,,,0.00,Wunderground v.1.15,2013-04-23 08:40:00,
2013-04-23 03:46:00,43.6,32.2,29.97,SSE,148,3.0,3.0,64,0.00,,,0.00,Wunderground v.1.15,2013-04-23 08:46:00,
2013-04-23 03:52:00,43.7,32.3,29.97,SE,136,3.0,5.0,64,0.00,,,0.00,Wunderground v.1.15,2013-04-23 08:52:00,
2013-04-23 03:58:00,43.7,32.3,29.96,ESE,113,3.0,7.0,64,0.00,,,0.00,Wunderground v.1.15,2013-04-23 08:58:00,
2013-04-23 04:04:00,43.6,32.2,29.96,SE,124,3.0,3.0,64,0.00,,,0.00,Wunderground v.1.15,2013-04-23 09:04:00,
2013-04-23 04:10:00,43.6,32.2,29.95,SSE,148,3.0,4.0,64,0.00,,,0.00,Wunderground v.1.15,2013-04-23 09:10:00,
2013-04-23 04:16:00,43.5,32.5,29.95,SSE,153,3.0,4.0,65,0.00,,,0.00,Wunderground v.1.15,2013-04-23 09:16:00,
2013-04-23 04:22:00,43.6,32.6,29.94,SSE,152,3.0,3.0,65,0.00,,,0.00,Wunderground v.1.15,2013-04-23 09:22:00,
2013-04-23 04:28:00,43.7,32.7,29.94,SE,143,3.0,3.0,65,0.00,,,0.00,Wunderground v.1.15,2013-04-23 09:28:00,
2013-04-23 04:34:00,43.7,32.7,29.94,South,170,3.0,3.0,65,0.00,,,0.00,Wunderground v.1.15,2013-04-23 09:34:00,
2013-04-23 04:40:00,43.6,32.6,29.93,SSE,153,3.0,4.0,65,0.00,,,0.00,Wunderground v.1.15,2013-04-23 09:40:00,
2013-04-23 04:46:00,43.7,32.7,29.93,SE,124,3.0,4.0,65,0.00,,,0.00,Wunderground v.1.15,2013-04-23 09:46:00,
2013-04-23 04:52:00,43.8,32.8,29.93,ESE,117,3.0,3.0,65,0.00,,,0.00,Wunderground v.1.15,2013-04-23 09:52:00,
2013-04-23 04:58:00,43.9,33.3,29.92,SSE,159,3.0,8.0,66,0.00,,,0.00,Wunderground v.1.15,2013-04-23 09:58:00,
2013-04-23 05:04:00,44.0,33.4,29.92,SSE,150,3.0,3.0,66,0.00,,,0.00,Wunderground v.1.15,2013-04-23 10:04:00,
2013-04-23 05:10:00,43.9,33.3,29.92,SSE,155,3.0,3.0,66,0.00,,,0.00,Wunderground v.1.15,2013-04-23 10:10:00,
2013-04-23 05:16:00,43.7,33.5,29.91,South,191,2.0,3.0,67,0.00,,,0.00,Wunderground v.1.15,2013-04-23 10:16:00,
2013-04-23 05:22:00,43.5,33.3,29.91,SSE,161,2.0,2.0,67,0.00,,,0.00,Wunderground v.1.15,2013-04-23 10:22:00,
2013-04-23 05:28:00,43.3,33.4,29.91,SSE,155,2.0,2.0,68,0.00,,,0.00,Wunderground v.1.15,2013-04-23 10:28:00,
2013-04-23 05:34:00,43.0,33.5,29.91,South,191,2.0,2.0,69,0.00,,,0.00,Wunderground v.1.15,2013-04-23 10:34:00,
2013-04-23 05:40:00,42.8,33.7,29.91,SSE,159,2.0,3.0,70,0.00,,,0.00,Wunderground v.1.15,2013-04-23 10:40:00,
2013-04-23 05:46:00,42.7,33.9,29.90,ESE,103,1.0,3.0,71,0.00,,,0.00,Wunderground v.1.15,2013-04-23 10:46:00,
2013-04-23 05:52:00,42.6,33.9,29.90,ENE,58,1.0,3.0,71,0.00,,,0.00,Wunderground v.1.15,2013-04-23 10:52:00,
2013-04-23 05:58:00,42.5,34.1,29.90,SSE,165,1.0,3.0,72,0.00,,,0.00,Wunderground v.1.15,2013-04-23 10:58:00,
2013-04-23 06:04:00,42.4,34.0,29.90,ESE,113,1.0,2.0,72,0.00,,,0.00,Wunderground v.1.15,2013-04-23 11:04:00,
2013-04-23 06:10:00,42.4,34.4,29.89,SSE,162,2.0,4.0,73,0.00,,,0.00,Wunderground v.1.15,2013-04-23 11:10:00,
2013-04-23 06:16:00,42.6,34.5,29.89,ESE,107,2.0,4.0,73,0.00,,,0.00,Wunderground v.1.15,2013-04-23 11:16:00,
2013-04-23 06:22:00,42.4,34.4,29.89,SE,145,2.0,3.0,73,0.00,,,0.00,Wunderground v.1.15,2013-04-23 11:22:00,
2013-04-23 06:28:00,42.5,34.5,29.89,SSE,155,2.0,3.0,73,0.00,,,0.00,Wunderground v.1.15,2013-04-23 11:28:00,
2013-04-23 06:34:00,42.8,34.7,29.89,SSE,150,2.0,2.0,73,0.00,,,0.00,Wunderground v.1.15,2013-04-23 11:34:00,
2013-04-23 06:40:00,42.9,34.8,29.88,ENE,69,1.0,2.0,73,0.00,,,0.00,Wunderground v.1.15,2013-04-23 11:40:00,
2013-04-23 06:46:00,42.9,34.8,29.88,ENE,60,1.0,2.0,73,0.00,,,0.00,Wunderground v.1.15,2013-04-23 11:46:00,
2013-04-23 06:52:00,42.8,34.7,29.88,East,79,1.0,3.0,73,0.00,,,0.00,Wunderground v.1.15,2013-04-23 11:52:00,
2013-04-23 06:58:00,42.7,35.0,29.88,SE,126,1.0,3.0,74,0.00,,,0.00,Wunderground v.1.15,2013-04-23 11:58:00,
2013-04-23 07:04:00,42.8,35.1,29.88,SSE,163,1.0,2.0,74,0.00,,,0.00,Wunderground v.1.15,2013-04-23 12:04:00,
2013-04-23 07:10:00,43.0,35.3,29.88,ENE,63,1.0,1.0,74,0.00,,,0.00,Wunderground v.1.15,2013-04-23 12:10:00,
2013-04-23 07:16:00,43.4,35.3,29.88,ENE,77,1.0,2.0,73,0.00,,,0.00,Wunderground v.1.15,2013-04-23 12:16:00,
2013-04-23 07:22:00,43.7,35.6,29.88,ENE,58,1.0,3.0,73,0.00,,,0.00,Wunderground v.1.15,2013-04-23 12:22:00,
2013-04-23 07:28:00,45.2,36.7,29.88,SE,136,1.0,3.0,72,0.00,,,0.00,Wunderground v.1.15,2013-04-23 12:28:00,
2013-04-23 07:34:00,46.6,37.0,29.88,South,172,1.0,2.0,69,0.00,,,0.00,Wunderground v.1.15,2013-04-23 12:34:00,
2013-04-23 07:40:00,48.0,37.2,29.88,SE,131,2.0,2.0,66,0.00,,,0.00,Wunderground v.1.15,2013-04-23 12:40:00,
2013-04-23 07:46:00,49.3,37.2,29.88,South,179,2.0,2.0,63,0.00,,,0.00,Wunderground v.1.15,2013-04-23 12:46:00,
2013-04-23 07:52:00,50.6,37.2,29.88,SSE,166,3.0,3.0,60,0.00,,,0.00,Wunderground v.1.15,2013-04-23 12:52:00,
2013-04-23 07:58:00,51.3,37.4,29.88,SSE,148,3.0,5.0,59,0.00,,,0.00,Wunderground v.1.15,2013-04-23 12:58:00,
2013-04-23 08:04:00,51.6,37.3,29.88,ENE,75,3.0,4.0,58,0.00,,,0.00,Wunderground v.1.15,2013-04-23 13:04:00,
2013-04-23 08:10:00,51.9,37.6,29.88,WSW,256,3.0,3.0,58,0.00,,,0.00,Wunderground v.1.15,2013-04-23 13:10:00,
2013-04-23 08:16:00,52.0,38.1,29.87,SE,136,3.0,5.0,59,0.00,,,0.00,Wunderground v.1.15,2013-04-23 13:16:00,
2013-04-23 08:22:00,51.6,39.0,29.88,SE,145,2.0,7.0,62,0.00,,,0.00,Wunderground v.1.15,2013-04-23 13:22:00,
2013-04-23 08:28:00,51.3,39.1,29.88,SSE,154,2.0,7.0,63,0.00,,,0.00,Wunderground v.1.15,2013-04-23 13:28:00,
2013-04-23 08:34:00,51.0,39.2,29.88,SE,142,2.0,5.0,64,0.00,,,0.00,Wunderground v.1.15,2013-04-23 13:34:00,
2013-04-23 08:40:00,50.9,39.5,29.87,SSE,165,2.0,4.0,65,0.00,,,0.00,Wunderground v.1.15,2013-04-23 13:40:00,
2013-04-23 08:46:00,50.8,39.8,29.87,SE,131,3.0,4.0,66,0.00,,,0.00,Wunderground v.1.15,2013-04-23 13:46:00,
2013-04-23 08:52:00,50.6,40.0,29.86,SSE,163,3.0,6.0,67,0.00,,,0.00,Wunderground v.1.15,2013-04-23 13:52:00,
2013-04-23 08:58:00,50.5,39.9,29.87,SE,141,3.0,6.0,67,0.00,,,0.00,Wunderground v.1.15,2013-04-23 13:58:00,
2013-04-23 09:04:00,50.2,40.8,29.88,SE,141,2.0,4.0,70,0.00,,,0.01,Wunderground v.1.15,2013-04-23 14:04:00,
2013-04-23 09:10:00,49.7,41.0,29.87,SE,145,3.0,3.0,72,0.00,,,0.01,Wunderground v.1.15,2013-04-23 14:10:00,
2013-04-23 09:16:00,49.3,41.0,29.87,SSE,155,3.0,5.0,73,0.00,,,0.01,Wunderground v.1.15,2013-04-23 14:16:00,
2013-04-23 09:22:00,49.2,41.3,29.86,SE,129,3.0,3.0,74,0.00,,,0.01,Wunderground v.1.15,2013-04-23 14:22:00,
2013-04-23 09:28:00,49.1,41.5,29.86,SE,139,3.0,4.0,75,0.00,,,0.02,Wunderground v.1.15,2013-04-23 14:28:00,
2013-04-23 09:34:00,49.0,41.8,29.86,SSE,153,3.0,5.0,76,0.00,,,0.02,Wunderground v.1.15,2013-04-23 14:34:00,
2013-04-23 09:40:00,49.1,42.2,29.86,SE,134,3.0,3.0,77,0.00,,,0.02,Wunderground v.1.15,2013-04-23 14:40:00,
2013-04-23 09:46:00,49.7,43.1,29.86,SSE,162,3.0,5.0,78,0.00,,,0.02,Wunderground v.1.15,2013-04-23 14:46:00,
2013-04-23 09:52:00,50.4,43.1,29.85,SE,131,3.0,4.0,76,0.00,,,0.02,Wunderground v.1.15,2013-04-23 14:52:00,
2013-04-23 09:58:00,50.6,43.0,29.85,SE,124,3.0,4.0,75,0.00,,,0.02,Wunderground v.1.15,2013-04-23 14:58:00,
2013-04-23 10:04:00,50.8,43.2,29.86,SE,145,4.0,4.0,75,0.00,,,0.02,Wunderground v.1.15,2013-04-23 15:04:00,
2013-04-23 10:10:00,51.2,43.5,29.85,SSE,153,4.0,5.0,75,0.00,,,0.02,Wunderground v.1.15,2013-04-23 15:10:00,
2013-04-23 10:16:00,51.9,43.5,29.85,West,274,3.0,5.0,73,0.00,,,0.02,Wunderground v.1.15,2013-04-23 15:16:00,
2013-04-23 10:22:00,52.6,43.5,29.85,SSE,156,3.0,4.0,71,0.00,,,0.02,Wunderground v.1.15,2013-04-23 15:22:00,
2013-04-23 10:28:00,53.2,43.7,29.85,SE,135,3.0,4.0,70,0.00,,,0.02,Wunderground v.1.15,2013-04-23 15:28:00,
2013-04-23 10:34:00,53.4,43.5,29.84,SE,131,3.0,4.0,69,0.00,,,0.02,Wunderground v.1.15,2013-04-23 15:34:00,
2013-04-23 10:40:00,53.6,43.7,29.85,SSE,160,3.0,6.0,69,0.00,,,0.02,Wunderground v.1.15,2013-04-23 15:40:00,
2013-04-23 10:46:00,53.9,44.0,29.84,West,274,3.0,6.0,69,0.00,,,0.02,Wunderground v.1.15,2013-04-23 15:46:00,
2013-04-23 10:52:00,54.4,44.1,29.84,SSW,212,3.0,3.0,68,0.00,,,0.02,Wunderground v.1.15,2013-04-23 15:52:00,
2013-04-23 10:58:00,54.9,44.5,29.84,SE,145,2.0,7.0,68,0.00,,,0.02,Wunderground v.1.15,2013-04-23 15:58:00,
2013-04-23 11:04:00,55.3,45.3,29.83,SSW,211,2.0,3.0,69,0.00,,,0.02,Wunderground v.1.15,2013-04-23 16:04:00,
2013-04-23 11:10:00,55.7,45.3,29.83,SSE,158,2.0,4.0,68,0.00,,,0.02,Wunderground v.1.15,2013-04-23 16:10:00,
2013-04-23 11:16:00,56.1,45.7,29.83,SE,126,3.0,4.0,68,0.00,,,0.02,Wunderground v.1.15,2013-04-23 16:16:00,
2013-04-23 11:22:00,56.4,46.0,29.83,SE,139,2.0,4.0,68,0.00,,,0.02,Wunderground v.1.15,2013-04-23 16:22:00,
2013-04-23 11:28:00,56.5,46.1,29.83,ENE,64,2.0,4.0,68,0.00,,,0.02,Wunderground v.1.15,2013-04-23 16:28:00,
2013-04-23 11:34:00,56.6,45.8,29.83,ESE,115,2.0,5.0,67,0.00,,,0.02,Wunderground v.1.15,2013-04-23 16:34:00,
2013-04-23 11:40:00,56.5,46.1,29.83,NW,325,3.0,3.0,68,0.00,,,0.02,Wunderground v.1.15,2013-04-23 16:40:00,
2013-04-23 11:46:00,56.5,46.1,29.83,South,170,2.0,4.0,68,0.00,,,0.02,Wunderground v.1.15,2013-04-23 16:46:00,
2013-04-23 11:52:00,56.4,46.0,29.84,SSE,153,3.0,3.0,68,0.00,,,0.02,Wunderground v.1.15,2013-04-23 16:52:00,
2013-04-23 11:58:00,56.3,46.3,29.83,SW,228,2.0,7.0,69,0.00,,,0.02,Wunderground v.1.15,2013-04-23 16:58:00,
2013-04-23 12:04:00,56.2,46.2,29.83,East,82,2.0,2.0,69,0.00,,,0.02,Wunderground v.1.15,2013-04-23 17:04:00,
2013-04-23 12:10:00,55.9,45.9,29.83,SE,127,1.0,2.0,69,0.00,,,0.02,Wunderground v.1.15,2013-04-23 17:10:00,
2013-04-23 12:16:00,55.8,46.2,29.83,SSE,148,1.0,2.0,70,0.00,,,0.02,Wunderground v.1.15,2013-04-23 17:16:00,
2013-04-23 12:22:00,54.5,44.2,29.83,NW,307,2.0,2.0,68,0.00,,,0.02,Wunderground v.1.15,2013-04-23 17:22:00,
2013-04-23 12:28:00,52.7,44.3,29.84,WNW,297,3.0,5.0,73,0.00,,,0.02,Wunderground v.1.15,2013-04-23 17:28:00,
2013-04-23 12:34:00,51.5,43.8,29.85,NNE,21,3.0,3.0,75,0.00,,,0.02,Wunderground v.1.15,2013-04-23 17:34:00,
2013-04-23 12:40:00,50.6,44.0,29.83,WNW,297,2.0,3.0,78,0.00,,,0.02,Wunderground v.1.15,2013-04-23 17:40:00,
2013-04-23 12:46:00,50.2,44.3,29.84,West,281,2.0,4.0,80,0.00,,,0.02,Wunderground v.1.15,2013-04-23 17:46:00,
2013-04-23 12:52:00,49.6,43.7,29.84,NW,311,3.0,3.0,80,0.00,,,0.02,Wunderground v.1.15,2013-04-23 17:52:00,
2013-04-23 12:58:00,48.8,43.2,29.84,SE,139,2.0,4.0,81,0.00,,,0.02,Wunderground v.1.15,2013-04-23 17:58:00,
2013-04-23 13:04:00,47.3,42.1,29.84,WNW,288,3.0,5.0,82,0.00,,,0.02,Wunderground v.1.15,2013-04-23 18:04:00,
2013-04-23 13:10:00,46.2,41.3,29.84,WNW,290,3.0,4.0,83,0.00,,,0.02,Wunderground v.1.15,2013-04-23 18:10:00,
2013-04-23 13:16:00,44.4,39.9,29.83,NW,309,2.0,4.0,84,0.00,,,0.02,Wunderground v.1.15,2013-04-23 18:16:00,
2013-04-23 13:22:00,43.1,39.2,29.84,WNW,284,2.0,2.0,86,0.00,,,0.02,Wunderground v.1.15,2013-04-23 18:22:00,
2013-04-23 13:28:00,42.0,39.0,29.84,West,274,3.0,3.0,89,0.00,,,0.02,Wunderground v.1.15,2013-04-23 18:28:00,
2013-04-23 13:34:00,41.3,38.6,29.84,WNW,294,2.0,3.0,90,0.00,,,0.02,Wunderground v.1.15,2013-04-23 18:34:00,
2013-04-23 13:40:00,40.9,38.2,29.84,WNW,298,2.0,3.0,90,0.00,,,0.02,Wunderground v.1.15,2013-04-23 18:40:00,
2013-04-23 13:46:00,40.3,37.9,29.85,WNW,294,3.0,5.0,91,0.00,,,0.02,Wunderground v.1.15,2013-04-23 18:46:00,
2013-04-23 13:52:00,39.9,37.5,29.85,WNW,294,2.0,4.0,91,0.00,,,0.02,Wunderground v.1.15,2013-04-23 18:52:00,
2013-04-23 13:58:00,39.6,37.5,29.84,WNW,297,2.0,6.0,92,0.00,,,0.02,Wunderground v.1.15,2013-04-23 18:58:00,
2013-04-23 14:04:00,39.4,37.3,29.85,WNW,290,2.0,3.0,92,0.00,,,0.02,Wunderground v.1.15,2013-04-23 19:04:00,
2013-04-23 14:10:00,39.3,37.4,29.85,WNW,303,2.0,2.0,93,0.00,,,0.03,Wunderground v.1.15,2013-04-23 19:10:00,
2013-04-23 14:16:00,39.1,37.2,29.85,WNW,287,2.0,3.0,93,0.11,,,0.04,Wunderground v.1.15,2013-04-23 19:16:00,
2013-04-23 14:22:00,38.9,37.0,29.85,WNW,283,2.0,2.0,93,0.13,,,0.05,Wunderground v.1.15,2013-04-23 19:22:00,
2013-04-23 14:28:00,38.7,36.9,29.85,West,277,2.0,2.0,93,0.15,,,0.07,Wunderground v.1.15,2013-04-23 19:28:00,
2013-04-23 14:34:00,38.6,37.0,29.86,WNW,300,2.0,3.0,94,0.13,,,0.08,Wunderground v.1.15,2013-04-23 19:34:00,
2013-04-23 14:40:00,38.4,36.8,29.86,WNW,297,2.0,4.0,94,0.11,,,0.09,Wunderground v.1.15,2013-04-23 19:40:00,
2013-04-23 14:46:00,38.2,36.6,29.86,WNW,290,2.0,4.0,94,0.15,,,0.10,Wunderground v.1.15,2013-04-23 19:46:00,
2013-04-23 14:52:00,37.9,36.3,29.87,West,280,2.0,3.0,94,0.15,,,0.12,Wunderground v.1.15,2013-04-23 19:52:00,
2013-04-23 14:58:00,37.5,35.9,29.87,NW,307,2.0,4.0,94,0.12,,,0.13,Wunderground v.1.15,2013-04-23 19:58:00,
2013-04-23 15:04:00,37.2,35.6,29.87,West,271,2.0,2.0,94,0.13,,,0.14,Wunderground v.1.15,2013-04-23 20:04:00,
2013-04-23 15:10:00,36.9,35.3,29.88,WNW,287,2.0,2.0,94,0.10,,,0.15,Wunderground v.1.15,2013-04-23 20:10:00,
2013-04-23 15:16:00,36.6,35.0,29.88,WNW,287,2.0,3.0,94,0.10,,,0.16,Wunderground v.1.15,2013-04-23 20:16:00,
2013-04-23 15:22:00,36.5,35.2,29.88,West,281,2.0,3.0,95,0.11,,,0.17,Wunderground v.1.15,2013-04-23 20:22:00,
2013-04-23 15:28:00,36.3,35.0,29.88,West,274,2.0,3.0,95,0.12,,,0.18,Wunderground v.1.15,2013-04-23 20:28:00,
2013-04-23 15:34:00,36.3,35.0,29.88,West,281,2.0,2.0,95,0.12,,,0.20,Wunderground v.1.15,2013-04-23 20:34:00,
2013-04-23 15:40:00,36.2,34.9,29.87,West,274,1.0,1.0,95,0.09,,,0.21,Wunderground v.1.15,2013-04-23 20:40:00,
2013-04-23 15:46:00,36.1,34.8,29.87,WNW,290,1.0,1.0,95,0.09,,,0.21,Wunderground v.1.15,2013-04-23 20:46:00,
2013-04-23 15:52:00,36.1,34.8,29.87,WNW,298,1.0,2.0,95,0.09,,,0.22,Wunderground v.1.15,2013-04-23 20:52:00,
2013-04-23 15:58:00,36.1,34.8,29.87,WNW,297,1.0,6.0,95,0.08,,,0.23,Wunderground v.1.15,2013-04-23 20:58:00,
2013-04-23 16:04:00,36.0,34.7,29.87,WNW,291,1.0,2.0,95,0.09,,,0.24,Wunderground v.1.15,2013-04-23 21:04:00,
2013-04-23 16:10:00,36.0,34.7,29.87,WNW,302,1.0,2.0,95,0.11,,,0.25,Wunderground v.1.15,2013-04-23 21:10:00,
2013-04-23 16:16:00,35.9,34.6,29.87,West,267,1.0,1.0,95,0.10,,,0.26,Wunderground v.1.15,2013-04-23 21:16:00,
2013-04-23 16:22:00,35.8,34.5,29.88,West,276,1.0,2.0,95,0.08,,,0.27,Wunderground v.1.15,2013-04-23 21:22:00,
2013-04-23 16:28:00,35.8,34.5,29.88,WNW,289,1.0,2.0,95,0.09,,,0.28,Wunderground v.1.15,2013-04-23 21:28:00,
2013-04-23 16:34:00,35.7,34.4,29.88,WNW,284,1.0,1.0,95,0.11,,,0.29,Wunderground v.1.15,2013-04-23 21:34:00,
2013-04-23 16:40:00,35.6,34.3,29.88,West,259,1.0,1.0,95,0.13,,,0.30,Wunderground v.1.15,2013-04-23 21:40:00,
2013-04-23 16:46:00,35.5,34.2,29.88,NW,316,1.0,1.0,95,0.12,,,0.32,Wunderground v.1.15,2013-04-23 21:46:00,
2013-04-23 16:52:00,35.4,34.1,29.88,West,272,1.0,1.0,95,0.11,,,0.33,Wunderground v.1.15,2013-04-23 21:52:00,
2013-04-23 16:58:00,35.1,33.8,29.88,West,278,1.0,1.0,95,0.08,,,0.33,Wunderground v.1.15,2013-04-23 21:58:00,
2013-04-23 17:04:00,34.8,33.5,29.88,NNE,28,1.0,2.0,95,0.05,,,0.33,Wunderground v.1.15,2013-04-23 22:04:00,
2013-04-23 17:10:00,34.3,33.0,29.89,West,270,1.0,1.0,95,0.04,,,0.34,Wunderground v.1.15,2013-04-23 22:10:00,
2013-04-23 17:16:00,33.8,32.5,29.89,West,278,1.0,3.0,95,0.04,,,0.34,Wunderground v.1.15,2013-04-23 22:16:00,
2013-04-23 17:22:00,33.5,32.2,29.90,NW,322,1.0,1.0,95,0.04,,,0.34,Wunderground v.1.15,2013-04-23 22:22:00,
2013-04-23 17:28:00,33.3,32.0,29.90,West,276,0.0,1.0,95,0.00,,,0.34,Wunderground v.1.15,2013-04-23 22:28:00,
2013-04-23 17:34:00,33.2,31.9,29.90,WSW,254,0.0,2.0,95,0.00,,,0.34,Wunderground v.1.15,2013-04-23 22:34:00,
2013-04-23 17:40:00,33.1,31.8,29.90,West,274,0.0,0.0,95,0.00,,,0.34,Wunderground v.1.15,2013-04-23 22:40:00,
2013-04-23 17:46:00,33.1,31.8,29.91,WNW,287,0.0,2.0,95,0.00,,,0.34,Wunderground v.1.15,2013-04-23 22:46:00,
2013-04-23 17:52:00,32.9,31.6,29.90,NW,308,0.0,1.0,95,0.00,,,0.34,Wunderground v.1.15,2013-04-23 22:52:00,
2013-04-23 17:58:00,32.9,31.6,29.90,NW,309,0.0,4.0,95,0.00,,,0.34,Wunderground v.1.15,2013-04-23 22:58:00,
2013-04-23 18:04:00,32.9,31.6,29.90,West,267,0.0,0.0,95,0.00,,,0.34,Wunderground v.1.15,2013-04-23 23:04:00,
2013-04-23 18:10:00,32.8,31.5,29.90,West,278,0.0,0.0,95,0.00,,,0.34,Wunderground v.1.15,2013-04-23 23:10:00,
2013-04-23 18:16:00,32.8,31.8,29.90,WNW,283,1.0,1.0,96,0.00,,,0.34,Wunderground v.1.15,2013-04-23 23:16:00,
2013-04-23 18:22:00,32.9,31.9,29.90,West,269,0.0,1.0,96,0.00,,,0.34,Wunderground v.1.15,2013-04-23 23:22:00,
2013-04-23 18:28:00,32.9,31.9,29.91,WSW,253,1.0,2.0,96,0.00,,,0.34,Wunderground v.1.15,2013-04-23 23:28:00,
2013-04-23 18:34:00,32.8,31.8,29.91,SSW,209,1.0,2.0,96,0.00,,,0.34,Wunderground v.1.15,2013-04-23 23:34:00,
2013-04-23 18:40:00,32.8,31.8,29.91,West,281,1.0,1.0,96,0.00,,,0.34,Wunderground v.1.15,2013-04-23 23:40:00,
2013-04-23 18:46:00,32.8,31.8,29.91,NW,312,1.0,1.0,96,0.00,,,0.34,Wunderground v.1.15,2013-04-23 23:46:00,
2013-04-23 18:52:00,32.7,31.7,29.91,WNW,299,1.0,2.0,96,0.00,,,0.34,Wunderground v.1.15,2013-04-23 23:52:00,
2013-04-23 18:58:00,32.7,31.7,29.91,WNW,294,1.0,2.0,96,0.00,,,0.34,Wunderground v.1.15,2013-04-23 23:58:00,
2013-04-23 19:04:00,32.7,31.7,29.91,West,278,1.0,1.0,96,0.00,,,0.34,Wunderground v.1.15,2013-04-24 00:04:00,
2013-04-23 19:10:00,32.7,31.7,29.90,WNW,287,1.0,1.0,96,0.00,,,0.34,Wunderground v.1.15,2013-04-24 00:10:00,
2013-04-23 19:16:00,32.7,31.7,29.90,ESE,111,1.0,1.0,96,0.00,,,0.34,Wunderground v.1.15,2013-04-24 00:16:00,
2013-04-23 19:22:00,32.7,31.7,29.90,West,278,1.0,1.0,96,0.00,,,0.34,Wunderground v.1.15,2013-04-24 00:22:00,
2013-04-23 19:28:00,32.7,31.7,29.90,WNW,282,0.0,1.0,96,0.00,,,0.34,Wunderground v.1.15,2013-04-24 00:28:00,
2013-04-23 19:34:00,32.7,31.7,29.90,WSW,253,0.0,1.0,96,0.00,,,0.34,Wunderground v.1.15,2013-04-24 00:34:00,
2013-04-23 19:40:00,32.8,31.8,29.90,NW,309,0.0,0.0,96,0.00,,,0.34,Wunderground v.1.15,2013-04-24 00:40:00,
2013-04-23 19:46:00,32.8,31.8,29.90,NNW,342,1.0,1.0,96,0.00,,,0.34,Wunderground v.1.15,2013-04-24 00:46:00,
2013-04-23 19:52:00,32.8,31.8,29.90,West,278,1.0,3.0,96,0.00,,,0.34,Wunderground v.1.15,2013-04-24 00:52:00,
2013-04-23 19:58:00,32.9,31.9,29.91,WNW,284,1.0,3.0,96,0.00,,,0.34,Wunderground v.1.15,2013-04-24 00:58:00,
2013-04-23 20:04:00,33.0,32.0,29.91,WNW,294,1.0,2.0,96,0.00,,,0.34,Wunderground v.1.15,2013-04-24 01:04:00,
2013-04-23 20:10:00,33.1,32.1,29.91,WNW,297,1.0,1.0,96,0.00,,,0.34,Wunderground v.1.15,2013-04-24 01:10:00,
2013-04-23 20:16:00,33.1,32.1,29.91,West,280,1.0,3.0,96,0.00,,,0.34,Wunderground v.1.15,2013-04-24 01:16:00,
2013-04-23 20:22:00,33.1,32.1,29.91,WNW,288,1.0,3.0,96,0.00,,,0.34,Wunderground v.1.15,2013-04-24 01:22:00,
2013-04-23 20:28:00,33.1,32.1,29.91,West,266,1.0,3.0,96,0.00,,,0.34,Wunderground v.1.15,2013-04-24 01:28:00,
2013-04-23 20:34:00,33.2,32.2,29.91,WNW,285,1.0,2.0,96,0.00,,,0.34,Wunderground v.1.15,2013-04-24 01:34:00,
2013-04-23 20:40:00,33.3,32.3,29.91,NW,304,1.0,1.0,96,0.00,,,0.34,Wunderground v.1.15,2013-04-24 01:40:00,
2013-04-23 20:46:00,33.4,32.4,29.91,WSW,253,1.0,1.0,96,0.00,,,0.34,Wunderground v.1.15,2013-04-24 01:46:00,
2013-04-23 20:52:00,33.3,32.3,29.91,NNE,22,1.0,1.0,96,0.00,,,0.34,Wunderground v.1.15,2013-04-24 01:52:00,
2013-04-23 20:58:00,33.3,32.3,29.90,WNW,288,1.0,1.0,96,0.00,,,0.34,Wunderground v.1.15,2013-04-24 01:58:00,
2013-04-23 21:04:00,33.4,32.1,29.90,WNW,293,1.0,1.0,95,0.00,,,0.34,Wunderground v.1.15,2013-04-24 02:04:00,
2013-04-23 21:10:00,33.6,32.3,29.91,WNW,287,1.0,2.0,95,0.00,,,0.34,Wunderground v.1.15,2013-04-24 02:10:00,
2013-04-23 21:18:00,33.6,32.3,29.91,WSW,238,1.0,2.0,95,0.00,,,0.34,Wunderground v.1.15,2013-04-24 02:18:00,
2013-04-23 21:24:00,33.6,32.3,29.91,WNW,297,1.0,1.0,95,0.00,,,0.34,Wunderground v.1.15,2013-04-24 02:24:00,
2013-04-23 21:32:00,33.7,32.4,29.92,WNW,288,1.0,3.0,95,0.00,,,0.34,Wunderground v.1.15,2013-04-24 02:32:00,
2013-04-23 21:38:00,33.7,32.2,29.92,West,259,1.0,3.0,94,0.00,,,0.35,Wunderground v.1.15,2013-04-24 02:38:00,
2013-04-23 21:44:00,33.7,32.2,29.92,WNW,293,1.0,2.0,94,0.00,,,0.35,Wunderground v.1.15,2013-04-24 02:44:00,
2013-04-23 21:50:00,33.7,32.2,29.92,WNW,291,1.0,4.0,94,0.00,,,0.35,Wunderground v.1.15,2013-04-24 02:50:00,
2013-04-23 21:56:00,33.7,32.2,29.92,NW,306,1.0,4.0,94,0.00,,,0.35,Wunderground v.1.15,2013-04-24 02:56:00,
2013-04-23 22:02:00,33.7,32.2,29.92,WSW,255,1.0,2.0,94,0.00,,,0.35,Wunderground v.1.15,2013-04-24 03:02:00,
2013-04-23 22:10:00,33.7,31.9,29.92,WNW,284,2.0,2.0,93,0.00,,,0.35,Wunderground v.1.15,2013-04-24 03:10:00,
2013-04-23 22:16:00,33.7,31.9,29.92,WNW,302,1.0,2.0,93,0.00,,,0.35,Wunderground v.1.15,2013-04-24 03:16:00,
2013-04-23 22:24:00,33.7,31.9,29.91,NW,325,1.0,1.0,93,0.00,,,0.35,Wunderground v.1.15,2013-04-24 03:24:00,
2013-04-23 22:30:00,33.7,31.9,29.91,NNW,343,1.0,1.0,93,0.00,,,0.36,Wunderground v.1.15,2013-04-24 03:30:00,
2013-04-23 22:36:00,33.7,31.9,29.91,WNW,298,1.0,3.0,93,0.00,,,0.36,Wunderground v.1.15,2013-04-24 03:36:00,
2013-04-23 22:42:00,33.7,31.9,29.91,WNW,301,1.0,2.0,93,0.00,,,0.36,Wunderground v.1.15,2013-04-24 03:42:00,
2013-04-23 22:48:00,33.7,31.9,29.91,WNW,300,1.0,2.0,93,0.00,,,0.36,Wunderground v.1.15,2013-04-24 03:48:00,
2013-04-23 22:54:00,33.7,31.9,29.91,WNW,293,1.0,1.0,93,0.00,,,0.36,Wunderground v.1.15,2013-04-24 03:54:00,
2013-04-23 23:00:00,33.7,31.6,29.91,WSW,257,1.0,1.0,92,0.00,,,0.00,Wunderground v.1.15,2013-04-24 04:00:00,
2013-04-23 23:02:00,33.7,31.6,29.91,WNW,302,1.0,3.0,92,0.00,,,0.00,Wunderground v.1.15,2013-04-24 04:02:00,
2013-04-23 23:06:00,33.7,31.6,29.91,WNW,288,1.0,3.0,92,0.00,,,0.00,Wunderground v.1.15,2013-04-24 04:06:00,
2013-04-23 23:08:00,33.7,31.6,29.91,WNW,297,1.0,3.0,92,0.00,,,0.00,Wunderground v.1.15,2013-04-24 04:08:00,
2013-04-23 23:12:00,33.7,31.6,29.91,NW,307,1.0,1.0,92,0.00,,,0.00,Wunderground v.1.15,2013-04-24 04:12:00,
2013-04-23 23:14:00,33.7,31.6,29.91,NW,321,1.0,1.0,92,0.00,,,0.00,Wunderground v.1.15,2013-04-24 04:14:00,
2013-04-23 23:20:00,33.7,31.6,29.91,WNW,289,1.0,1.0,92,0.00,,,0.00,Wunderground v.1.15,2013-04-24 04:20:00,
2013-04-23 23:26:00,33.7,31.6,29.91,WNW,297,1.0,1.0,92,0.00,,,0.00,Wunderground v.1.15,2013-04-24 04:26:00,
2013-04-23 23:32:00,33.7,31.6,29.90,West,261,1.0,1.0,92,0.00,,,0.00,Wunderground v.1.15,2013-04-24 04:32:00,
2013-04-23 23:38:00,33.7,31.6,29.90,West,269,1.0,1.0,92,0.00,,,0.00,Wunderground v.1.15,2013-04-24 04:38:00,
2013-04-23 23:44:00,33.7,31.6,29.90,West,280,1.0,5.0,92,0.00,,,0.00,Wunderground v.1.15,2013-04-24 04:44:00,
2013-04-23 23:50:00,33.7,31.6,29.90,West,277,1.0,2.0,92,0.00,,,0.00,Wunderground v.1.15,2013-04-24 04:50:00,
2013-04-23 23:56:00,33.7,31.6,29.90,NE,54,1.0,3.0,92,0.00,,,0.01,Wunderground v.1.15,2013-04-24 04:56:00,